Regional Weather Roundup
Issued by NWS

Home | Current Version | Previous Version | Graphics & Text | Print | Product List | Glossary On
Versions: 1 2 3 4 5 6 7 8 9 10 11 12 13 14 15 16 17 18 19 20 21 22 23 24 25 26 27 28 29 30 31 32 33 34 35 36 37 38 39 40 41 42 43 44 45 46 47 48 49 50
193
ASUS45 KTFX 170410
RWRMT
MONTANA REGIONAL WEATHER ROUNDUP
NATIONAL WEATHER SERVICE GREAT FALLS MT
900 PM MST SAT DEC 16 2017

NOTE: "FAIR" INDICATES FEW OR NO CLOUDS BELOW 12000 FEET WITH NO
SIGNIFICANT WEATHER AND/OR OBSTRUCTIONS TO VISIBILITY.

MTZ001>007-043-170500-
WEST OF THE DIVIDE

CITY           SKY/WX    TMP DP  RH WIND       PRES   REMARKS
KALISPELL      MOCLDY    24  18  77 SW8       30.13S WCI  15
MISSOULA       MOCLDY    22  18  85 NW5       30.17S
BUTTE          CLOUDY     9   5  84 SW7       30.05S WCI  -2
MULLAN PASS    CLOUDY    17  12  80 SW6       30.03F WCI   9
ANACONDA         N/A     18  16  93 SW3       30.07F
DEER LODGE       N/A     12  12 100 W3        30.10S
EUREKA           N/A     28  19  69 MISG      30.12F
HAMILTON         N/A     23  14  68 CALM      30.15F
LIBBY            N/A     19  18  93 CALM      30.14F
RONAN            N/A     23  19  86 S7        30.15F WCI  15
$$

MTZ008-052>055-170500-
SOUTHWEST MONTANA

CITY           SKY/WX    TMP DP  RH WIND       PRES   REMARKS
BOZEMAN        MOCLDY    15  13  91 CALM      30.06F FOG
DILLON         CLOUDY    23  20  88 S6        30.04S WCI  16
W YELLOWSTONE  FAIR       5   3  92 CALM      29.98S
ENNIS          CLOUDY    12   9  85 CALM      30.08S
$$

MTZ009-010-012-014-046-048-049-054-170500-
EAST SLOPES AND CENTRAL MONTANA

CITY           SKY/WX    TMP DP  RH WIND       PRES   REMARKS
CUT BANK       FAIR      22  13  68 W23       29.91F WCI   6
GREAT FALLS    FAIR      18  13  80 S10       29.99F WCI   6
HELENA         FAIR      26  16  65 SW6       30.05F WCI  19
CHOTEAU          N/A     21   9  58 SW3       29.97F
RAYNESFORD     FAIR      26  17  70 SW12      29.98F WCI  15
$$

MTZ011-013-016-021-045-047-050-051-170500-
NORTH CENTRAL MONTANA

CITY           SKY/WX    TMP DP  RH WIND       PRES   REMARKS
HAVRE          CLOUDY    28  25  88 SW7       29.99F WCI  21
LEWISTOWN      FAIR      21  21 100 SE7       30.00F WCI  12
N BAR RANCH    FAIR      25  16  68 CALM      30.02F
CHINOOK          N/A     30  27  86 CALM      30.01F
GEYSER         FAIR      20  14  76 SW9       29.98F WCI   9
STANFORD       FAIR      17  12  80 S6        29.97F WCI   8
$$

MTZ017>020-022>027-061-062-170500-
NORTHEAST MONTANA

CITY           SKY/WX    TMP DP  RH WIND       PRES   REMARKS
GLASGOW        FAIR      24  17  74 SW5       30.03F
GLENDIVE       FAIR      23  19  85 W9        30.07S WCI  13
JORDAN           N/A     15  10  80 CALM      30.06S
SIDNEY         FAIR      24  19  81 S3        30.06S
WOLF POINT     MOCLDY    15  11  83 W5        30.06S
MALTA          MOCLDY    23  21  93 W3        30.03F
PLENTYWOOD       N/A     23  16  74 CALM      30.00F
POPLAR           N/A     19  14  79 CALM      30.06S
$$

MTZ028>42-056>058-170500-
SOUTHCENTRAL AND SOUTHEAST MONTANA

CITY           SKY/WX    TMP DP  RH WIND       PRES   REMARKS
BAKER          FAIR      26  23  88 CALM      30.06S
BILLINGS       MOCLDY    25  25 100 CALM      30.06F
LIVINGSTON     FOG       20  19  96 NW9       30.04S VSB 1/2 WCI   9
MILES CITY     FAIR      25  21  85 NW7       30.08R WCI  17
BIG TIMBER     CLOUDY    25  23  93 S3        30.07S FOG
FORSYTH          N/A     28  27  93 CALM      30.08R
LAUREL           N/A     27  25  93 NW8       30.08F WCI  18
$$

REGIONAL REPORTS...DAKOTAS

CITY           SKY/WX    TMP DP  RH WIND       PRES   REMARKS
WILLISTON      FAIR      24  18  77 W6        30.04R WCI  17
MINOT          FAIR      28  21  75 SW10      30.00S WCI  19
DICKINSON      FAIR      26  21  81 W7        30.02S WCI  18
BEACH          FAIR      25  19  80 W7        30.08R WCI  17
CROSBY         FAIR      25  18  74 SW12      30.00S WCI  14
TIOGA          FAIR      19  19 100 W6        30.02R WCI  11
BISMARCK       FAIR      30  27  88 SW5       30.07R
GRAND FORKS    FAIR      12  11  95 S7        30.03R WCI   1
FARGO          FAIR      25  23  92 S7        30.07R WCI  17
BUFFALO SD       N/A     29  24  82 NW6       29.99R WCI  23
RAPID CITY     CLOUDY    31  23  72 N7        30.06R WCI  24
$$

REGIONAL REPORTS...WYOMING/IDAHO/WASHINGTON

CITY           SKY/WX    TMP DP  RH WIND       PRES   REMARKS
GILLETTE       LGT SNOW  27  26  96 N6        30.01S FOG     WCI  20
SHERIDAN       LGT SNOW  29  28  96 CALM      30.04S FOG
BUFFALO WY     LGT SNOW  27  22  81 CALM      30.02S
CODY           FAIR      24  21  88 N9        30.01R WCI  14
YELLOWSTONE LA   N/A      8   6  92 N3        29.96R
IDAHO FALLS      N/A     22  22 100 SW9       30.08R VSB 1   WCI  12
SALMON         FAIR      18  12  77 SE7       30.15R WCI   9
BOISE          FAIR      29  22  75 W12       30.17R WCI  19
SPOKANE        LGT SNOW  25  25 100 SE7       30.21F VSB 1   WCI  17
$$

REGIONAL REPORTS...ALBERTA

CITY           SKY/WX    TMP DP  RH WIND       PRES   REMARKS
EDMONTON       CLEAR     27  12  54 SW8       29.73F WCI  18
CALGARY        PTCLDY    27   3  36 SW3       29.78F
LETHBRIDGE     CLEAR     18  10  73 SW13      29.88F WCI   4
MEDICINE HAT   CLEAR     27  23  86 S12G17    29.92F WCI  16
$$

REGIONAL REPORTS...SASKATCHEWAN

CITY           SKY/WX    TMP DP  RH WIND       PRES   REMARKS
SWIFT CURRENT  CLEAR     21  19  93 SW12      29.93F WCI   9
REGINA         PTCLDY    23  18  80 W12       29.92S WCI  12
SASKATOON      PTCLDY    21  18  86 SW12      29.88S WCI   9
$$




USA.gov is the U.S. government's official web portal to all federal, state and local government web resources and services.